Location: ??????
(56.0120°N, 39.1740°E)
Time: 05:36:03
(UTC+00:00)

SL-16 R/B - Pass Details

Date: 14 April 2026
Orbit: 839 x 849 km, 71.0° (Epoch: 10 May)

Event Time Altitude Azimuth Distance (km) Brightness Sun altitude
Exits shadow 17:49:46 10° 96° (E) 2,469 4.1 -10.9°
Reaches altitude 10° 17:49:52 10° 95° (E) 2,467 4.1 -11.0°
Maximum altitude 17:50:09 10° 92° (E) 2,465 4.1 -11.0°
Drops below altitude 10° 17:50:26 10° 90° (E) 2,468 4.2 -11.0°
Sets 17:55:59 0° 46° (NE) 3,416 5.3 -11.6°
